Location: Burbank
(38.7788°N, 114.0429°W)
Time: 20:31:41
(UTC+00:00)

S-56A Canister/Altair - Pass Details

Date: 10 May 2026
Orbit: 632 x 2484 km, 38.9° (Epoch: 8 June)

Event Time Altitude Azimuth Distance (km) Brightness Sun altitude
Rises 13:23:05 0° 268° (W) 4,374 10.8 9.2°
Reaches altitude 10° 13:28:23 10° 240° (WSW) 3,835 10.5 10.2°
Maximum altitude 13:31:54 12° 219° (SW) 3,917 10.7 10.9°
Drops below altitude 10° 13:35:49 10° 199° (SSW) 4,368 11.1 11.6°
Sets 13:43:11 0° 175° (S) 5,778 11.9 13.0°
